Showing default

COSMOS 2169, 21783

Orbit data source: Space-Track

COSMOS 2169, 21783 is a payload satellite owned by UNKS RF (CIS) in LEO that was launched on Tue, 12 Nov 1991 UTC via a TSIKLON-3 launch vehicle from the Plesetsk Missile And Space Complex (PKMTR). Payload-class satellites include a variety of spacecraft equipped with specific instruments for various scientific and technological missions. These include communications satellites like Starlink; space stations such as the ISS; scientific satellites like the Hubble; Earth observation satellites from companies like Planet Labs, Umbra, and HawkEye 360; GPS; miniature CubeSats for education and research; and military/defense satellites.

Loading next visibility...
Identifier
21783, 1991-077E
Orbit
LEO
Country
Flag of CISCIS
Related business
Manufacturer
NPO PM
Mission
Defense Communications
Bus & Motor
STRELA-3, Unknown motor
Mass
225 kg wet, 225 kg dry
Launch date (UTC)
1991-11-12 (34 years ago)
Launch vehicle
TSIKLON-3
Launch site
Plesetsk Missile And Space Complex (PKMTR)
Object type
Payload
Rocket body
Debris
Shape & HBR
Cyl, 0.8 m
Radar Cross Section
1.257 m², Medium (>0.1 m² and < 1m²)

Expand to show TLE details & history
Last TLE update: 18 hours ago

TLE from 18 hours ago
0 COSMOS 2169
1 21783U 91077E   25310.47994508  .00000045  00000-0  17926-3 0  9999
2 21783  82.6058 351.1701 0018994 118.3154 241.9859 12.66307608570609
Epoch: 2025-11-06T11:31Z
TLE epoch observation values (Epoch: 2025-11-06T11:31:07.254Z)
Latitude
0.00002°
Longitude
132.45221°
Altitude
1,406.713 km
Speed
7.154 km/s
True Right ascension
23h 24m 40s
True Declination
0° 00' 00"
Sunlit
Object was in full shadow at epoch
Visualization orbit readout
Latitude
Unknown
Longitude
Unknown
Altitude
Unknown
Speed
Unknown
Apparent Right ascension
Unknown
Apparent Declination
Unknown
Sunlit
N/A
Visualization observer readout
Local Sidereal Time
01:50:57
Azimuth
Unknown
Elevation
Unknown
Doppler factor
Unknown
Orbital elements
Apogee altitude
1,409.095 km
Perigee altitude
1,379.569 km
Semi-major axis
7,772.469 km
Eccentricity
0.0019
Inclination
82.6058°
RAAN
351.1701°
Arg. of periapsis
118.3154°
True anomaly
241.79396°
Mean anomaly
241.9859°
Eccentric anomaly
241.88991°
Mean motion
3.16741 °/min
Orbital period
113.66 mins
BSTAR
0.00017926
Loading maneuver chart data...
Computing Atmospheric mass density...
Loading historical data...
Loading historical data...
Loading historical data...
Loading historical data...
Loading historical data...
Loading historical data...
Loading historical data...

Documentation

Showing up to 5 results
|